STARLINK-34236, 64743

Orbit data source: Space-Track

STARLINK-34236, 64743 is a payload satellite owned by SpaceX/Seattle (US) in LEO that was launched on Wed, 02 Jul 2025 UTC via an FALCON 9 launch vehicle from the Air Force Eastern Test Range (AFETR). Payload-class satellites include a variety of spacecraft equipped with specific instruments for various scientific and technological missions. These include communications satellites like Starlink; space stations such as the ISS; scientific satellites like the Hubble; Earth observation satellites from companies like Planet Labs, Umbra, and HawkEye 360; GPS; miniature CubeSats for education and research; and military/defense satellites.

Loading next visibility...
Identifier
64743, 2025-144V
Orbit
LEO
Country
Flag of USUS
Related business
Manufacturer
SpaceX/Seattle
Mission
Operational Commercial Communications
Bus & Motor
STARLINK V2MO, Unknown motor
Mass
575 kg wet, ~530 kg dry
Launch date (UTC)
2025-07-02 (1 year ago)
Launch vehicle
FALCON 9
Launch site
Air Force Eastern Test Range (AFETR)
Object type
Payload
Rocket body
Debris
Shape & HBR
Box + 2 Pan, 17.7 m
Radar Cross Section
36.964 m², Large (>1 m²)

Expand to show TLE details & history
Last TLE update: 22 hours ago

TLE from 22 hours ago
0 STARLINK-34236
1 64743U 25144V   26170.91977295  .00009511  00000-0  33280-3 0  9990
2 64743  53.1590  66.1968 0001314  91.6228 268.4923 15.30203484 55365
Epoch: 2026-06-19T22:04Z
TLE epoch observation values (Epoch: 2026-06-19T22:04:28.382Z)
Latitude
-0.00006°
Longitude
-173.06334°
Altitude
476.128 km
Speed
7.629 km/s
True Right ascension
04h 24m 47s
True Declination
0° 00' 00"
Sunlit
Object was in daylight at epoch
Visualization orbit readout
Latitude
Unknown
Longitude
Unknown
Altitude
Unknown
Speed
Unknown
Apparent Right ascension
Unknown
Apparent Declination
Unknown
Sunlit
N/A
Visualization observer readout
Local Sidereal Time
07:22:59
Azimuth
Unknown
Elevation
Unknown
Doppler factor
Unknown
Orbital elements
Apogee altitude
476.362 km
Perigee altitude
474.561 km
Semi-major axis
6,853.598 km
Eccentricity
0.00013
Inclination
53.159°
RAAN
66.1968°
Arg. of periapsis
91.6228°
True anomaly
268.47725°
Mean anomaly
268.4923°
Eccentric anomaly
268.48477°
Mean motion
3.8253 °/min
Orbital period
94.11 mins
BSTAR
0.0003328
Loading maneuver chart data...
Computing Atmospheric mass density...
Loading historical data...
Loading historical data...
Loading historical data...
Loading historical data...
Loading historical data...
Loading historical data...
Loading historical data...

Documentation

Showing up to 5 results
|